{"data":{"norad_id":42917,"epoch":"2026-05-25T00:55:28.324128Z","epoch_age_seconds":64936,"freshness":"FRESH","line1":"1 42917U 17048A   26145.03852227 -.00000351  00000+0  00000+0 0  9998","line2":"2 42917   0.0888 121.5297 0002042 299.6972 322.2578  1.00267366 32025","mean_motion":1.00267366,"eccentricity":0.0002042,"inclination_deg":0.0888,"raan_deg":121.5297,"arg_perigee_deg":299.6972,"mean_anomaly_deg":322.2578,"bstar":0,"rev_number":3202,"period_min":1436.1601959305,"perigee_km":35779.223521562,"apogee_km":35796.444104042,"semimajor_km":42165.970812802,"source":"CELESTRAK","updated_at":"2026-05-25T13:38:24.343508Z"}}